CDT,Max TemperatureF,Mean TemperatureF,Min TemperatureF,Max Dew PointF,MeanDew PointF,Min DewpointF,Max Humidity, Mean Humidity, Min Humidity, Max Sea Level PressureIn, Mean Sea Level PressureIn, Min Sea Level PressureIn, Max VisibilityMiles, Mean VisibilityMiles, Min VisibilityMiles, Max Wind SpeedMPH, Mean Wind SpeedMPH, Max Gust SpeedMPH,PrecipitationIn, CloudCover, Events, WindDirDegrees
2012-10-1,76,68,60,59,55,46,94,74,38,29.79,29.72,29.68,10,10,9,14,6,18,0.12,2,Rain,344
2012-10-2,77,66,55,55,50,43,84,62,36,29.94,29.87,29.79,10,10,7,8,3,,0.00,1,Rain,265
2012-10-3,77,67,57,58,56,52,93,69,45,30.11,30.03,29.94,10,10,10,12,3,,0.00,1,,191
2012-10-4,83,67,51,61,56,50,97,74,37,30.23,30.16,30.12,10,10,8,9,2,,0.00,0,Rain,174
2012-10-5,84,67,50,70,58,44,96,80,50,30.19,30.06,29.94,10,10,4,16,7,26,0.04,5,Rain-Thunderstorm,314
2012-10-6,50,46,42,45,40,33,93,77,52,30.27,30.23,30.18,10,10,5,16,8,23,0.22,7,Rain-Thunderstorm,2
2012-10-7,58,49,41,48,41,36,92,73,46,30.32,30.25,30.20,10,10,7,7,2,,0.00,4,,15
2012-10-8,62,51,41,48,42,40,100,88,47,30.28,30.23,30.14,10,5,0,8,1,,0.04,1,Fog-Rain,250
2012-10-9,69,52,37,57,47,36,95,74,50,30.16,30.07,29.96,10,10,10,10,3,,0.00,3,,218
2012-10-10,69,60,51,57,49,34,100,78,28,30.28,30.17,30.05,10,7,0,13,4,23,0.00,3,Fog,303
2012-10-11,72,64,55,58,49,42,88,66,57,30.26,30.20,30.15,10,10,4,8,3,,0.00,5,Rain,95
2012-10-12,69,62,56,63,60,54,100,92,71,30.30,30.22,30.17,10,7,1,13,4,,0.13,6,Rain,55
2012-10-13,82,70,58,70,62,58,100,92,58,30.20,30.12,29.88,10,4,0,15,5,21,0.00,5,Fog-Rain,133
2012-10-14,80,68,57,68,62,53,100,85,43,30.02,29.92,29.81,10,8,1,24,12,29,0.82,5,Rain-Thunderstorm,213
2012-10-15,79,63,47,54,51,47,96,69,36,30.09,30.02,29.96,10,10,10,10,3,,0.00,0,,193
2012-10-16,74,61,49,57,53,48,97,78,49,29.97,29.88,29.78,10,10,10,12,2,20,0.00,0,,170
2012-10-17,75,66,57,69,62,51,95,81,64,29.77,29.63,29.51,10,10,3,20,8,32,0.04,4,Rain,211
2012-10-18,72,60,48,51,38,27,94,51,19,29.88,29.81,29.72,10,10,10,26,8,34,0.00,1,,258
2012-10-19,68,57,45,44,36,32,87,45,30,29.90,29.82,29.77,10,10,10,22,11,29,0.00,0,,267
2012-10-20,77,58,38,50,44,37,94,68,30,29.97,29.91,29.85,10,10,10,7,1,,0.00,0,,159
2012-10-21,82,66,50,68,60,49,94,76,61,30.00,29.96,29.91,10,10,10,12,3,,0.00,3,,165
2012-10-22,81,73,64,65,60,56,84,69,47,30.08,30.03,29.99,10,10,10,14,7,18,0.00,2,,180
2012-10-23,82,72,61,62,59,55,91,68,50,30.06,30.00,29.95,10,10,10,18,4,21,0.00,1,,174
2012-10-24,83,69,56,65,61,55,98,77,51,30.06,30.00,29.94,10,10,9,16,3,17,0.00,1,,165
2012-10-25,82,66,51,66,59,49,94,82,53,30.07,29.98,29.88,10,9,3,18,8,28,0.39,6,Rain,283
2012-10-26,52,48,44,48,43,32,93,85,63,30.27,30.17,30.09,10,8,2,13,8,22,0.85,7,Rain-Thunderstorm,8
2012-10-27,58,47,37,34,31,28,74,57,33,30.29,30.22,30.15,10,10,8,14,6,17,0.00,0,,342
2012-10-28,60,48,36,34,30,26,84,60,27,30.27,30.22,30.18,10,10,10,12,4,,0.00,0,,333
2012-10-29,59,46,32,35,31,26,89,64,28,30.34,30.24,30.14,10,10,6,8,2,,0.00,0,,310
2012-10-30,66,50,33,46,36,28,91,68,30,30.12,30.04,29.95,10,10,10,9,2,,0.00,1,,257
2012-10-31,70,55,40,45,40,34,94,68,31,30.04,29.99,29.96,10,10,6,8,1,,0.00,1,,305